AirNav   Bose ProFlight Series 2 Headset
 
 1652 users online  

0MO7 SSM Health St Joseph Hospital-Lake St. Louis Heliport
Lake Saint Louis, Missouri, USA

GOING TO LAKE SAINT LOUIS?


FAA INFORMATION EFFECTIVE 02 JANUARY 2020

Location

FAA Identifier: 0MO7
Lat/Long: 38-48-11.8100N 090-46-34.5300W
38-48.196833N 090-46.575500W
38.8032806,-90.7762583
(estimated)
Elevation: 531 ft. / 162 m (estimated)
Variation: 02E (1985)
From city: 1 mile N of LAKE SAINT LOUIS, MO
Time zone: UTC -6 (UTC -5 during Daylight Saving Time)
Zip code: 63367

Heliport Operations

Heliport use: Private use, MEDICAL USE.
Activation date: 06/1991
Control tower: no
ARTCC: KANSAS CITY CENTER
FSS: SAINT LOUIS FLIGHT SERVICE STATION
Attendance: UNATNDD
Wind indicator: yes
Segmented circle: no
Lights: FOR PERI LGTS CALL 636-625-5200.

Heliport Communications

WX ASOS at SUS (10 nm SE): 134.8 (314-890-7255)
WX AWOS-3 at FYG (16 nm SW): 121.325 (636-433-5914)
WX ASOS at SET (18 nm NE): 118.075 (636-250-4590)
WX ASOS at STL (19 nm E): 125.025 (314-890-4790)

Nearby radio navigation aids

VOR radial/distance  VOR name  Freq  Var
FTZr049/11.2FORISTELL VORTAC110.8005E
STLr255/14.2ST LOUIS VORTAC117.4001E

 
NDB name  Hdg/Dist  Freq  Var  ID
SNOOP358/9.932601WSU ... ..-
EAVES306/13.122701WFZ ..-. --..
OBLIO272/14.133801WLM .-.. --
CIVIC MEMORIAL262/34.126301WCVM -.-. ...- --

Heliport Services

Runway Information

Helipad H1

Dimensions: 65 x 65 ft. / 20 x 20 m
Surface: concrete
Runway edge lights: PERI
Latitude: 38-48.196833N
Longitude: 090-46.575500W
Elevation: 530.0 ft.
Traffic pattern: leftleft

Heliport Ownership and Management from official FAA records

Ownership: Privately-owned
Owner: SSM HEALTH CARE ST. LOUIS
1015 CORPORATE SQUARE DRIVE, SUITE 110
ST.LOUIS, MO 63132
Phone (314) 989-2895
Manager: JOHN O'BRIEN
1015 CORPORATE SQUARE DRIVE, SUITE 110
ST. LOUIS, MO 63132
Phone (314) 989-2895
GENE WALKENHORST, 100 MEDICAL PLAZA, LAKE ST. LOUIS, MO 63367, 636-625-5319

Additional Remarks

OWNER DESIRES HELIPAD NOT BE CHARTED.
FOR CD CTC ST LOUIS APCH AT 314-890-1018.

Instrument Procedures

There are no published instrument procedures at 0MO7.

Some nearby airports with instrument procedures:

KSUS - Spirit of St Louis Airport (10 nm SE)
1H0 - Creve Coeur Airport (13 nm E)
KFYG - Washington Regional Airport (16 nm SW)
KSET - St Charles County Smartt Airport (18 nm NE)
KSTL - St Louis Lambert International Airport (19 nm E)
 
Loc | Ops | Rwys | IFR | FBO | Links
Com | Nav | Svcs | Stats | Notes

Kansas City Aviation Department
 
Area around 0MO7 (SSM Health St Joseph Hospital-Lake St. Louis Heliport)
 
Road maps at: MapQuest Bing Google
 
Aerial photo
No photo
 
Sectional chart

 
Airport distance calculator
Flying to SSM Health St Joseph Hospital-Lake St. Louis Heliport? Find the distance to fly.

From to 0MO7

Sunrise and sunset
Times for 23-Jan-2020
 Local
(UTC-6)
 Zulu
(UTC)
Morning civil twilight06:4812:48
Sunrise07:1713:17
Sunset17:1323:13
Evening civil twilight17:4223:42

Current date and time
Zulu (UTC)  23-Jan-2020 14:59:08
Local (UTC-6)  23-Jan-2020 08:59:08
 
METAR
KSUS 
11nm SE 
231454Z VRB03KT 10SM BKN008 OVC025 02/00 A3001 RMK AO2 SNE04 SLP170 P0000 60000 T00170000 58002
KFYG 
16nm SW 
231435Z AUTO 13006KT 4SM -SN FEW013 SCT024 SCT036 01/01 A3001 RMK AO2
KSET 
18nm NE 
231454Z AUTO 12005KT 4SM BR OVC008 01/00 A3002 RMK AO2 SNB20E45 SLP168 6//// T00110000 58002 PNO $
KSTL 
19nm E 
231451Z 16007KT 2 1/2SM -PLSN BR OVC005 01/M01 A3002 RMK AO2 SLP176 P0000 60000 T00111006 58002
TAF
KSUS 
11nm SE 
231121Z 2312/2412 16007KT 3SM -SN BR OVC007 FM231500 15006KT 5SM -RA BR OVC007 FM232200 11005KT 2SM -SN BR OVC003 FM240100 10005KT 1SM -SN BR OVC003
KSTL 
19nm E 
231121Z 2312/2418 16009KT 3SM -SN BR OVC007 FM231500 15009KT 5SM -RA BR OVC007 FM232200 14006KT 2SM -SN BR OVC003 FM240100 10005KT 1SM -SN BR OVC003 FM241300 28005KT 2SM -SN BR OVC003
NOTAMs
Click for the latest NOTAMs
NOTAMs are issued by the DoD/FAA and will open in a separate window not controlled by AirNav.

 

 
 

Would you like to see your business listed on this page?

 If your business provides an interesting product or service to pilots, flight crews, aircraft, or users of the SSM Health St Joseph Hospital-Lake St. Louis Heliport, you should consider listing it here.  To start the listing process, click on the button below
 
Add a business
 

Other Pages about SSM Health St Joseph Hospital-Lake St. Louis Heliport

Update a link
 
Copyright © AirNav, LLC. All rights reserved. Privacy Policy  Contact